This demonstration page uses our WeatherBlox Daily Observations layout. Learn more.

Left ArrowRight Arrow

39.92423, -83.80882

Hourly Observations for July 18, 2022

Temp ( °F °C ) Dew Point ( °F °C ) Humidity (%) Winds ( mph kmh ) Pressure ( in mb ) Visibility ( mi km ) Precip ( " mm )
12:11 am 00:11 Cloudy N/A N/A N/A W 7 11 N/A 10 16 0.00 0.00
12:19 am 00:19 Cloudy N/A N/A N/A WSW 8 13 N/A 10 16 0.00 0.00
12:35 am 00:35 Cloudy N/A N/A N/A WSW 9 15 N/A 10 16 0.00 0.00
12:48 am 00:48 Cloudy N/A N/A N/A WSW 8 13 N/A 10 16 0.00 0.00
12:56 am 00:56 Cloudy N/A N/A N/A WSW 8 13 N/A 10 16 0.00 0.00
1:56 am 01:56 Mostly Cloudy N/A N/A N/A SW 5 7 N/A 10 16 0.00 0.00
2:04 am 02:04 Mostly Cloudy N/A N/A N/A SW 6 9 N/A 10 16 0.00 0.00
2:17 am 02:17 Cloudy N/A N/A N/A SW 6 9 N/A 10 16 0.00 0.00
2:34 am 02:34 Cloudy N/A N/A N/A SW 6 9 N/A 10 16 0.00 0.00
2:56 am 02:56 Cloudy N/A N/A N/A SW 5 7 N/A 8 13 0.00 0.00
3:19 am 03:19 Cloudy N/A N/A N/A SW 5 7 N/A 8 13 0.00 0.00
3:56 am 03:56 Cloudy with Haze N/A N/A N/A SW 5 7 N/A 6 10 0.00 0.00
4:48 am 04:48 Cloudy with Haze N/A N/A N/A W 6 9 N/A 5 8 0.00 0.00
4:56 am 04:56 Cloudy with Haze N/A N/A N/A WSW 6 9 N/A 5 8 0.00 0.00
5:15 am 05:15 Cloudy with Haze N/A N/A N/A W 5 7 N/A 6 10 0.00 0.00
5:56 am 05:56 Cloudy with Haze N/A N/A N/A W 7 11 N/A 5 8 0.00 0.00
6:37 am 06:37 Cloudy with Light Rain N/A N/A N/A W 5 7 N/A 2 3 0.00 0.00
6:56 am 06:56 Cloudy with Light Rain N/A N/A N/A SW 5 7 N/A 3 4 0.00 0.00
7:37 am 07:37 Cloudy with Light Rain 68 20 N/A N/A Calm 29.86 1011 3 4 0.00 0.00
7:41 am 07:41 Cloudy with Light Rain 68 20 N/A N/A WSW 3 6 29.86 1011 3 5 0.00 0.00
7:48 am 07:48 Cloudy with Light Rain 68 20 N/A N/A Calm 29.86 1011 3 5 0.00 0.00
7:56 am 07:56 Mostly Cloudy with Light Rain 68 20 N/A N/A W 3 6 29.86 1011 3 5 0.00 0.00
8:01 am 08:01 Mostly Cloudy with Mist and Fog 68 20 N/A N/A W 3 6 29.87 1012 3 4 0.00 0.00
8:09 am 08:09 Mostly Cloudy with Mist and Fog 68 20 N/A N/A WSW 3 6 29.87 1012 3 5 0.00 0.00
8:53 am 08:53 Cloudy with Haze 68 20 N/A N/A WSW 5 7 29.89 1012 4 6 0.00 0.00
8:56 am 08:56 Cloudy with Haze N/A N/A N/A WSW 5 7 N/A 4 6 0.00 0.00
9:06 am 09:06 Cloudy with Haze N/A N/A N/A Calm N/A 4 6 0.00 0.00
9:56 am 09:56 Cloudy with Haze 70 21 N/A N/A NW 5 7 29.90 1012 5 8 0.00 0.00
10:56 am 10:56 Cloudy 72 22 N/A N/A WNW 6 9 29.88 1012 10 16 0.00 0.00
11:16 am 11:16 Cloudy 72 22 N/A N/A NW 6 9 29.89 1012 10 16 0.00 0.00
11:44 am 11:44 Cloudy 73 23 N/A N/A W 5 7 29.90 1013 10 16 0.00 0.00
11:56 am 11:56 Cloudy 73 22.8 73 22.8 100 100 W 3 6 29.90 1013 10 16 0.00 0.00
12:09 pm 12:09 Cloudy 73 23 N/A N/A WSW 5 7 29.90 1013 10 16 0.00 0.00
12:56 pm 12:56 Cloudy 73 23 N/A N/A WSW 3 6 29.90 1013 10 16 0.00 0.00
1:07 pm 13:07 Cloudy 73 23 73 23 100 100 VRB 3 6 29.90 1013 10 16 0.00 0.00
1:56 pm 13:56 Cloudy 75 23.9 74 23.3 96 96 WSW 5 7 29.89 1012 10 16 0.00 0.00
2:56 pm 14:56 Mostly Cloudy 78 25.6 72 22.2 82 82 VRB 3 6 29.86 1011 10 16 0.00 0.00
3:13 pm 15:13 Mostly Sunny 77 25 72 22 83 83 Calm 29.86 1011 10 16 0.00 0.00
3:33 pm 15:33 Mostly Cloudy 79 26 73 23 84 84 VRB 5 7 29.86 1011 10 16 0.00 0.00
3:43 pm 15:43 Partly Cloudy 79 26 72 22 79 79 VRB 5 7 29.86 1011 10 16 0.00 0.00
3:56 pm 15:56 Partly Cloudy 79 26.1 72 22.2 79 79 WNW 3 6 29.86 1011 10 16 0.00 0.00
4:53 pm 16:53 Mostly Cloudy 81 27 72 22 74 74 Calm 29.86 1011 10 16 0.00 0.00
4:56 pm 16:56 Mostly Cloudy 80 26.7 72 22.2 76 76 VRB 3 6 29.86 1011 10 16 0.00 0.00
5:15 pm 17:15 Partly Cloudy 79 26 72 22 79 79 Calm 29.86 1011 10 16 0.00 0.00
5:56 pm 17:56 Mostly Sunny 80 26.7 72 22.2 76 76 SW 5 7 29.85 1011 10 16 0.00 0.00
6:56 pm 18:56 Sunny 80 26.7 71 21.7 74 74 Calm 29.85 1011 10 16 0.00 0.00
7:56 pm 19:56 Sunny 78 25.6 73 22.8 85 85 S 3 6 29.88 1012 10 16 0.00 0.00
8:56 pm 20:56 Sunny 73 23 N/A N/A Calm 29.86 1011 10 16 0.00 0.00
9:56 pm 21:56 Partly Cloudy 72 22 N/A N/A SSW 5 7 29.91 1013 10 16 0.00 0.00
10:07 pm 22:07 Mostly Cloudy 72 22 N/A N/A Calm 29.88 1012 8 13 0.00 0.00
10:15 pm 22:15 Mostly Cloudy 72 22 N/A N/A Calm 29.88 1012 10 16 0.00 0.00
10:27 pm 22:27 Cloudy 72 22 N/A N/A SSW 5 7 29.89 1012 10 16 0.00 0.00
10:35 pm 22:35 Cloudy 72 22 N/A N/A SSW 3 6 29.89 1012 10 16 0.00 0.00
10:56 pm 22:56 Cloudy 72 22 N/A N/A Calm 29.92 1013 10 16 0.00 0.00
11:56 pm 23:56 Cloudy 72 22 N/A N/A SW 6 9 29.91 1013 10 16 0.00 0.00

Powered by AerisWeather